GW5247 Weather Reports


time (UTC)temp
C
wind
direction
speed
KPH
gust
KPH
rain 1hr
cm
rain 24hr
cm
rain mn
cm
humidity
%
barometer
mb
20260906131517 25 333 3.2 6.4 0.00 0.23 0.00 87 1013.3
20260906130518 23 17 1.6 6.4 0.00 0.23 0.00 90 1013.3
20260906125517 23 356 4.8 9.7 0.00 0.23 0.00 91 1013.5
20260906124538 23 351 3.2 6.4 0.00 0.23 0.00 92 1013.4
20260906123539 23 7 3.2 8.0 0.00 0.23 0.00 92 1013.3
20260906122518 23 351 3.2 4.8 0.00 0.23 0.00 93 1013.3
20260906121518 23 9 3.2 4.8 0.00 0.23 0.00 94 1013.2
20260906120518 22 38 3.2 4.8 0.00 0.23 0.00 95 1013.2
20260906115518 22 18 1.6 4.8 0.00 0.23 0.00 96 1013.1
20260906114518 22 16 1.6 4.8 0.00 0.23 0.00 96 1013.0
20260906113519 22 11 1.6 4.8 0.00 0.23 0.00 96 1012.9
20260906112519 22 60 3.2 6.4 0.00 0.23 0.00 96 1012.8
20260906111519 22 19 1.6 4.8 0.00 0.23 0.00 97 1012.7
20260906110519 22 18 1.6 6.4 0.00 0.23 0.00 97 1012.5
20260906105519 22 358 3.2 6.4 0.00 0.23 0.00 98 1012.4
20260906104540 22 17 3.2 8.0 0.00 0.23 0.00 98 1012.2
20260906103541 22 358 4.8 16.1 0.00 0.23 0.00 98 1012.3
20260906102519 22 352 3.2 9.7 0.00 0.23 0.00 98 1012.3
20260906101520 22 8 3.2 6.4 0.00 0.23 0.00 98 1012.2
20260906100540 22 30 1.6 4.8 0.00 0.23 0.00 98 1011.9
20260906095540 22 17 1.6 4.8 0.00 0.23 0.00 98 1011.9
20260906094540 22 6 3.2 6.4 0.00 0.23 0.00 98 1011.7
20260906093540 22 1 3.2 6.4 0.00 0.23 0.00 98 1011.6
20260906092520 22 6 1.6 3.2 0.00 0.23 0.00 98 1011.6
20260906091520 22 29 1.6 1.6 0.00 0.23 0.00 98 1011.5
20260906090521 22 11 1.6 3.2 0.00 0.23 0.00 98 1011.6
20260906085521 22 12 1.6 6.4 0.00 0.23 0.00 98 1011.4
20260906084541 22 7 3.2 6.4 0.00 0.23 0.00 98 1011.4
20260906083541 22 12 3.2 4.8 0.00 0.23 0.00 99 1011.3
20260906082521 22 18 1.6 4.8 0.00 0.23 0.00 99 1011.2
20260906081521 22 358 3.2 6.4 0.00 0.23 0.00 99 1011.1
20260906080522 22 9 1.6 3.2 0.00 0.23 0.00 99 1010.9
20260906075522 22 258 1.6 1.6 0.00 0.23 0.00 99 1010.8
20260906074522 22 188 0.0 1.6 0.00 0.23 0.00 99 1010.8
20260906073542 22 44 1.6 3.2 0.00 0.23 0.00 99 1010.7
20260906072542 22 23 3.2 4.8 0.00 0.23 0.00 99 1010.8
20260906071543 22 14 3.2 4.8 0.00 0.23 0.00 99 1010.8
20260906070543 22 360 0.0 3.2 0.00 0.23 0.00 99 1010.8
20260906065543 22 16 0.0 1.6 0.00 0.23 0.00 98 1010.8
20260906064523 22 0 1.6 1.6 0.00 0.23 0.00 99 1010.9
20260906063523 22 354 1.6 3.2 0.00 0.23 0.00 99 1011.0
20260906062524 22 349 1.6 1.6 0.00 0.23 0.00 98 1011.0
20260906061523 22 279 1.6 1.6 0.00 0.23 0.00 98 1011.1
20260906060524 22 39 1.6 1.6 0.00 0.23 0.00 98 1011.3
20260906055544 22 235 0.0 1.6 0.00 0.23 0.00 98 1011.4
20260906054544 22 315 0.0 0.0 0.00 0.23 0.00 98 1011.5
20260906053544 22 11 1.6 3.2 0.00 0.23 0.00 98 1011.5
20260906052544 22 210 0.0 1.6 0.00 0.23 0.00 98 1011.6
20260906051545 22 13 0.0 3.2 0.00 0.23 0.00 98 1011.7
20260906050524 22 93 0.0 1.6 0.00 0.23 0.00 98 1011.9
20260906045524 22 29 0.0 1.6 0.00 0.23 0.00 98 1011.9
20260906044525 22 32 0.0 1.6 0.00 0.23 0.00 98 1011.9
20260906043545 22 0.0 0.0 0.00 0.23 0.00 98 1011.9
20260906042525 22 51 0.0 1.6 0.00 0.23 0.00 98 1012.0
20260906041546 22 2 1.6 3.2 0.00 0.23 0.00 98 1012.0
20260906040546 22 199 0.0 1.6 0.00 0.23 0.00 98 1012.0
20260906035546 22 216 0.0 1.6 0.00 0.23 0.23 98 1012.1
20260906034526 22 0.0 0.0 0.00 0.23 0.23 97 1012.1
20260906033526 22 80 0.0 0.0 0.00 0.23 0.23 97 1012.2
20260906032516 22 202 0.0 1.6 0.00 0.23 0.23 97 1012.2
20260906031536 22 21 0.0 3.2 0.00 0.23 0.23 97 1012.2
20260906030536 22 0.0 0.0 0.00 0.23 0.23 97 1012.2
20260906025536 22 0.0 0.0 0.00 0.23 0.23 97 1012.1
20260906024537 22 194 0.0 1.6 0.00 0.23 0.23 97 1012.1
20260906023517 22 206 0.0 0.0 0.00 0.23 0.23 97 1012.2
20260906022517 23 320 0.0 3.2 0.00 0.23 0.23 97 1012.1
20260906021517 23 17 0.0 4.8 0.00 0.23 0.23 97 1012.0
20260906020517 23 10 0.0 6.4 0.00 0.23 0.23 97 1011.9
20260906015517 23 0 1.6 8.0 0.00 0.23 0.23 97 1011.9
20260906014517 23 348 0.0 3.2 0.00 0.23 0.23 97 1011.8
20260906013517 23 93 0.0 1.6 0.00 0.23 0.23 97 1011.9
20260906012518 23 0.0 0.0 0.00 0.23 0.23 96 1011.6
20260906011518 23 0.0 0.0 0.00 0.23 0.23 96 1011.6
20260906010538 23 187 0.0 0.0 0.00 0.23 0.23 95 1011.6
20260906005538 23 183 0.0 3.2 0.00 0.23 0.23 95 1011.6
20260906004515 23 1 0.0 1.6 0.00 0.23 0.23 94 1011.5
20260906003515 23 352 0.0 3.2 0.00 0.23 0.23 94 1011.6
20260906002515 24 0.0 0.0 0.00 0.23 0.23 93 1011.4
20260906001516 24 216 0.0 3.2 0.00 0.23 0.23 92 1011.2
20260906000516 24 243 0.0 3.2 0.00 0.23 0.23 91 1011.0
20260905235516 24 347 3.2 6.4 0.00 0.23 0.23 91 1010.8
20260905234517 24 350 4.8 8.0 0.00 0.23 0.23 91 1010.8
20260905233517 25 345 3.2 4.8 0.00 0.23 0.23 91 1010.7
20260905232517 25 349 1.6 6.4 0.00 0.23 0.23 91 1010.4
20260905231537 25 341 1.6 6.4 0.00 0.23 0.23 91 1010.6
20260905230537 25 346 1.6 4.8 0.00 0.23 0.23 90 1010.0
20260905225538 25 343 3.2 4.8 0.00 0.23 0.23 91 1009.8
20260905224537 25 132 0.0 1.6 0.00 0.23 0.23 91 1009.7
20260905223538 24 347 1.6 4.8 0.00 0.23 0.23 90 1009.8
20260905222518 24 351 3.2 8.0 0.03 0.23 0.23 91 1010.0
20260905221515 23 227 1.6 4.8 0.08 0.23 0.23 92 1010.3
20260905220538 23 307 0.0 1.6 0.15 0.23 0.23 92 1010.2
20260905215515 23 282 0.0 3.2 0.23 0.23 0.23 93 1010.4
20260905214515 23 289 0.0 1.6 0.23 0.23 0.23 93 1010.4
20260905213515 24 237 0.0 1.6 0.23 0.23 0.23 92 1010.4
20260905212515 25 0.0 0.0 0.20 0.20 0.20 87 1010.1
20260905211515 26 265 0.0 3.2 0.13 0.13 0.13 84 1010.2
20260905210516 27 353 0.0 3.2 0.08 0.08 0.08 75 1010.4
20260905205516 27 348 4.8 9.7 0.00 0.00 0.00 72 1010.4
20260905204517 27 10 3.2 9.7 0.00 0.00 0.00 71 1010.1
20260905203517 28 342 3.2 8.0 0.00 0.00 0.00 69 1010.1
20260905202517 28 1 4.8 12.9 0.00 0.00 0.00 67 1010.4
20260905201517 29 6 8.0 17.7 0.00 0.00 0.00 65 1010.6
20260905200517 31 356 9.7 22.5 0.00 0.00 0.00 63 1010.1
20260905195517 33 7 9.7 19.3 0.00 0.00 0.00 58 1009.9
20260905194518 35 9 6.4 11.3 0.00 0.00 0.00 45 1009.4
20260905193518 36 10 4.8 9.7 0.00 0.00 0.00 43 1009.5
20260905192538 36 9 4.8 16.1 0.00 0.00 0.00 42 1009.2
20260905191518 36 12 3.2 11.3 0.00 0.00 0.00 43 1009.2
20260905190538 36 10 4.8 14.5 0.00 0.00 0.00 40 1009.4
20260905185515 36 321 4.8 9.7 0.00 0.00 0.00 42 1009.3
20260905184515 37 356 4.8 11.3 0.00 0.00 0.00 43 1009.3
20260905183515 36 12 4.8 11.3 0.00 0.00 0.00 43 1009.5
20260905182516 36 1 4.8 9.7 0.00 0.00 0.00 45 1009.8
20260905181516 36 10 4.8 9.7 0.00 0.00 0.00 46 1010.0
20260905180516 36 354 3.2 8.0 0.00 0.00 0.00 46 1010.3
20260905175516 36 36 1.6 8.0 0.00 0.00 0.00 47 1010.5
20260905174516 36 259 3.2 9.7 0.00 0.00 0.00 49 1010.7
20260905173537 36 342 1.6 8.0 0.00 0.00 0.00 51 1011.0
20260905172516 35 341 4.8 14.5 0.00 0.00 0.00 51 1011.1
20260905171517 35 13 4.8 9.7 0.00 0.00 0.00 51 1011.3
20260905170517 35 280 4.8 14.5 0.00 0.00 0.00 52 1011.5
20260905165517 35 227 3.2 9.7 0.00 0.00 0.00 52 1011.5
20260905164517 35 7 4.8 11.3 0.00 0.00 0.00 53 1011.6
20260905163517 35 357 3.2 9.7 0.00 0.00 0.00 54 1011.7
20260905162517 34 353 3.2 8.0 0.00 0.00 0.00 54 1011.9
20260905161518 34 237 1.6 8.0 0.00 0.00 0.00 56 1012.0
20260905160518 33 300 3.2 11.3 0.00 0.00 0.00 57 1012.2
20260905155538 33 295 4.8 16.1 0.00 0.00 0.00 57 1012.3
20260905154515 33 5 1.6 6.4 0.00 0.00 0.00 59 1012.5
20260905153515 33 227 3.2 11.3 0.00 0.00 0.00 59 1012.6
20260905152516 32 220 1.6 6.4 0.00 0.00 0.00 61 1012.5
20260905151516 32 306 4.8 11.3 0.00 0.00 0.00 61 1012.6
20260905150516 32 350 4.8 11.3 0.00 0.00 0.00 63 1012.6
20260905145516 32 310 3.2 12.9 0.00 0.00 0.00 63 1012.6
20260905144516 32 339 3.2 11.3 0.00 0.00 0.00 63 1012.6
20260905143516 31 249 3.2 11.3 0.00 0.00 0.00 65 1012.6
20260905142517 31 247 3.2 6.4 0.00 0.00 0.00 67 1012.7
20260905141516 30 274 3.2 8.0 0.00 0.00 0.00 69 1012.6
20260905140516 30 245 4.8 9.7 0.00 0.00 0.00 72 1012.6
20260905135517 30 241 3.2 8.0 0.00 0.00 0.00 73 1012.4
20260905134537 29 251 3.2 8.0 0.00 0.00 0.00 74 1012.5
20260905133538 28 245 3.2 8.0 0.00 0.00 0.00 76 1012.5
20260905132537 28 251 3.2 12.9 0.00 0.00 0.00 77 1012.5